Regional Weather Roundup
Issued by NWS

Home | Current Version | Previous Version | Text Only | Print | Product List | Glossary On
Versions: 1 2 3 4 5 6 7 8 9 10 11 12 13 14 15 16 17 18 19 20 21 22 23 24 25 26 27 28 29 30 31 32 33 34 35 36 37 38 39 40 41 42 43 44 45 46 47 48 49 50
000
ASUS44 KJAN 030610
RWRMS

MISSISSIPPI HOURLY WEATHER ROUNDUP
NATIONAL WEATHER SERVICE JACKSON MS
100 AM CDT TUE MAY 03 2016

NOTE: "FAIR: INDICATES FEW OR NO CLOUDS BELOW 12,000 FEET WITH NO
SIGNIFICANT WEATHER AND/OR OBSTRUCTIONS TO VISIBILITY.

MSZ001>002-007>008-010>013-018>021-025>028-034>036-030700-
NORTHWEST MISSISSIPPI

CITY           SKY/WX    TMP DP  RH WIND       PRES   REMARKS
BATESVILLE     FOG       58  57  97 CALM      30.00F VSB 1/4
CLEVELAND      MOCLDY    62  62 100 NW3       30.00S
GREENWOOD      CLOUDY    63  60  90 CALM      29.99F
6HR MIN TEMP:  63; 6HR MAX TEMP:  64;

GREENVILLE     CLOUDY    63  60  90 W5        30.00F
6HR MIN TEMP:  63; 6HR MAX TEMP:  64;

OLIVE BRANCH   CLOUDY    57  57 100 NW3       29.99S
OXFORD         CLOUDY    57  57 100 CALM      30.00F FOG
TUNICA         CLOUDY    59  54  82 NW3       30.01S
WINONA         CLOUDY    61  60  96 NW3       29.98F
$$

MSZ003>006-009-014>017-022>024-029>033-037>039-030700-
NORTHEAST MISSISSIPPI

CITY           SKY/WX    TMP DP  RH WIND       PRES   REMARKS
COLUMBUS AFB   NOT AVBL
CORINTH        CLOUDY    61  59  94 CALM      29.96F
GOLDN TRIANGLE CLOUDY    63  57  82 NW7       29.96F
STARKVILLE     CLOUDY    61  59  94 CALM      29.97S
TUPELO         CLOUDY    61  57  87 VRB3      29.97R
6HR MIN TEMP:  61; 6HR MAX TEMP:  65;

$$

MSZ040-058-030700-
CENTRAL MISSISSIPPI

CITY           SKY/WX    TMP DP  RH WIND       PRES   REMARKS
JACKSON INTL   LGT RAIN  65  61  87 NW8       29.98F
6HR MIN TEMP:  65; 6HR MAX TEMP:  73; 6HR PCP: TRACE;

JACKSON HAWKNS CLOUDY    63  60  90 N6        29.99S
6HR MIN TEMP:  63; 6HR MAX TEMP:  71;

MADISON        CLOUDY    63  59  88 NW3       29.99S
MERIDIAN KEY   CLOUDY    67  65  93 NW6       29.96S
6HR MIN TEMP:  66; 6HR MAX TEMP:  72;

MERIDIAN NAS   CLOUDY    66  63  90 N9        29.96R
6HR MIN TEMP:  66; 6HR MAX TEMP:  71;

VICKSBURG TVR  CLOUDY    65  60  84 N9        30.00F
6HR MIN TEMP:  65; 6HR MAX TEMP:  69;

VICKSBURG VKS  CLOUDY    64  59  82 N5        30.00S
$$

MSZ059>079-030700-
SOUTH MISSISSIPPI

CITY           SKY/WX    TMP DP  RH WIND       PRES   REMARKS
BROOKHAVEN     CLOUDY   N/A N/A N/A NW8       29.98F
COLUMBIA       FOG       64  64 100 CALM      29.99F VSB 1
HATTIESBURG    PTCLDY    67  65  93 CALM      29.95F
6HR MIN TEMP:  66; 6HR MAX TEMP:  75;

MCCOMB         CLOUDY    68  67  96 N6        29.97S
6HR MIN TEMP:  67; 6HR MAX TEMP:  75;

NATCHEZ        CLOUDY    63  59  88 N6        30.00F
6HR MIN TEMP:  63; 6HR MAX TEMP:  68; 6HR PCP:  0.02;

PINE BELT      CLEAR     64  63  94 CALM      29.96F
6HR MIN TEMP:  64; 6HR MAX TEMP:  73;

$$

MSZ080>082-030700-
COASTAL MISSISSIPPI

CITY           SKY/WX    TMP DP  RH WIND       PRES   REMARKS
BILOXI         NOT AVBL
PASCAGOULA     CLOUDY    71  70  96 CALM      29.93F
6HR MIN TEMP:  71; 6HR MAX TEMP:  77;

GULFPORT       FOG       71  70  96 CALM      29.92F VSB 1/2
6HR MIN TEMP:  71; 6HR MAX TEMP:  75;

$$




USA.gov is the U.S. government's official web portal to all federal, state and local government web resources and services.